Flag for Sweden Weather past 2 weeks in Malmö, Sweden

45 °F


Feels Like: 43 °F
Forecast: 48 / 54 °F
Wind: 3 mph from East

Location: Malmo / Sturup

Current Time: Oct 14, 2015 at 5:09:56 AM

Latest Report: Oct 14, 2015 at 4:20 AM

Visibility: 5 mi

Pressure: 30.21 "Hg

Humidity: 87%

Dew point: 41 °F

Location of MalmöLocation

Historic Weather in Malmö — Graph


Malmö temperature yesterday

Maximum temperature yesterday: 45 °F (at 12:20 AM)
Minimum temperature yesterday: 41 °F (at 1:50 AM)
Average temperature yesterday: 43 °F

Past Weeks' High & Low Weather Summary

High63 °F (Sep 29, 2:20 PM)100% (Sep 29, 3:20 AM)30.74 "Hg (Sep 29, 3:20 AM)
Low36 °F (Sep 30, 4:20 AM)45% (Sep 29, 4:20 PM)29.89 "Hg (Oct 4, 4:20 AM)
Average49 °F80%30.25 "Hg
* Reported Sep 29 3:20 AM — Oct 14 3:50 AM, Malmö, Weather by CustomWeather, © 2015

Note: Actual official high and low records may vary slightly from our data, if they occured in-between our weather recording intervals... More about our weather records


Malmö weather history for previous 24 hours

Time TempWeatherWind HumidityBarometerVisibility
3:50 AM
Wed, Oct 14
45 °FFog.8 mph93%30.21 "Hg6 mi
3:20 AM45 °FFog.9 mph87%30.21 "Hg6 mi
2:50 AM43 °FFog.7 mph100%30.21 "Hg5 mi
2:20 AM43 °FFog.7 mph100%30.21 "Hg4 mi
1:50 AM45 °FFog.8 mph93%30.21 "Hg4 mi
1:20 AM43 °FFog.8 mph100%30.21 "Hg5 mi
12:50 AM43 °FFog.8 mph100%30.21 "Hg4 mi
11:20 PM
Tue, Oct 13
43 °FFog.6 mph93%30.21 "Hg5 mi
10:50 PM43 °FFog.8 mph93%30.21 "Hg6 mi
10:20 PM45 °FPassing clouds.7 mph87%30.21 "Hg5 mi
9:50 PM45 °FPassing clouds.9 mph87%30.21 "HgN/A
9:20 PM45 °FPassing clouds.8 mph93%30.21 "HgN/A
8:50 PM43 °FPassing clouds.6 mph100%30.18 "HgN/A
8:20 PM45 °FLight rain. Passing clouds.9 mph93%30.18 "Hg6 mi
7:50 PM43 °FLight rain. Passing clouds.8 mph100%30.18 "Hg6 mi
7:20 PM43 °FLight rain. Fog.8 mph100%30.18 "Hg6 mi
6:50 PM45 °FDrizzle. Fog.7 mph93%30.18 "Hg6 mi
6:20 PM43 °FLight rain. Broken clouds.8 mph100%30.18 "Hg6 mi
5:50 PM45 °FLight rain. Broken clouds.7 mph93%30.18 "Hg6 mi
5:20 PM43 °FLight rain. Fog.7 mph100%30.18 "Hg5 mi
4:50 PM45 °FLight rain. Broken clouds.8 mph93%30.18 "Hg6 mi
4:20 PM45 °FLight rain. Partly sunny.10 mph87%30.18 "Hg6 mi
3:50 PM45 °FLight rain. Partly sunny.13 mph87%30.18 "Hg6 mi
3:20 PM45 °FDrizzle. Partly sunny.12 mph87%30.18 "HgN/A
2:50 PM45 °FLight rain. Partly sunny.8 mph93%30.21 "HgN/A
2:20 PM45 °FLight rain. Fog.7 mph93%30.21 "Hg6 mi
1:50 PM45 °FLight rain. Fog.8 mph87%30.21 "Hg5 mi
1:20 PM45 °FPartly sunny.12 mph93%30.21 "HgN/A
12:50 PM45 °FLight rain. Broken clouds.12 mph93%30.21 "HgN/A
12:20 PM45 °FDrizzle. Broken clouds.13 mph93%30.21 "Hg6 mi
11:50 AM45 °FLight rain. Partly sunny.12 mph93%30.21 "HgN/A
11:20 AM45 °FDrizzle. Broken clouds.10 mph93%30.21 "HgN/A
10:50 AM43 °FDrizzle. Broken clouds.9 mph100%30.21 "HgN/A
10:20 AM43 °FDrizzle. Broken clouds.9 mph93%30.21 "HgN/A
9:50 AM43 °FDrizzle. Broken clouds.9 mph93%30.24 "HgN/A
9:20 AM43 °FDrizzle. Broken clouds.10 mph93%30.24 "HgN/A
8:50 AM41 °FLight rain. Broken clouds.8 mph100%30.24 "Hg6 mi
8:20 AM41 °FLight rain. Partly cloudy.9 mph100%30.24 "Hg6 mi
7:50 AM41 °FLight rain. Passing clouds.9 mph93%30.24 "Hg6 mi
7:20 AM41 °FPassing clouds.3 mph93%30.24 "HgN/A
6:50 AM41 °FClear.6 mph93%30.24 "Hg10 mi
6:20 AM41 °FPartly cloudy.6 mph93%30.24 "HgN/A
5:20 AM43 °FClear.6 mph81%30.27 "Hg10 mi
Weather by CustomWeather, © 2015

See weather overviewHow to use our weather pages